Kap Morris Jesup

KL  EN  DA
ASIAQ
Weather Now GREENLAND SURVEY
Updated [WGT/WGST] Temperature [°C] Wind [m/s] Air pressure [hPa] Relative humidity [%] Precipitation [mm]
Present Wind chill Speed Max
04.05 09:00-10,2-20,911,0 ⇒13,0103768n/a
04.05 08:00-10,6-21,210,0 ⇒14,0103773n/a
04.05 07:00-10,4-21,512,0 ⇒15,0103675n/a
04.05 06:00-10,9-22,011,0 ⇒14,0103679n/a
04.05 05:00-11,4-22,711,0 ⇒14,0103682n/a
04.05 04:00-11,3-21,910,0 ⇒12,0103680n/a
04.05 03:00-11,6-22,711,0 ⇒14,0103680n/a
04.05 02:00-11,8-23,712,0 ⇒15,0103681n/a
04.05 01:00-11,4-23,313,0 ⇒17,0103579n/a
04.05 00:00-11,5-24,014,0 ⇒18,0103581n/a
03.05 23:00-11,9-24,514,0 ⇒18,0103583n/a
03.05 22:00-11,8-23,813,0 ⇒16,0103583n/a
03.05 21:00-11,5-23,413,0 ⇒16,0103482n/a
03.05 20:00-11,1-23,113,0 ⇒17,0103379n/a
03.05 19:00-11,0-22,913,0 ⇒17,0103376n/a
03.05 18:00-11,4-23,814,0 ⇒18,0103279n/a
03.05 17:00-11,5-23,613,0 ⇒16,0103180n/a
03.05 16:00-11,2-23,715,0 ⇒19,0103176n/a
03.05 15:00-11,1-23,615,0 ⇒18,0103076n/a
03.05 14:00-11,9-25,016,0 ⇒19,0103079n/a
03.05 13:00-12,2-25,215,0 ⇒19,0102983n/a
03.05 12:00-12,1-24,814,0 ⇒18,0102983n/a
03.05 11:00-12,4-25,415,0 ⇒19,0102884n/a
03.05 10:00-13,1-26,515,0 ⇒19,0102785n/a
03.05 09:00-13,3-26,916,0 ⇒19,0102785n/a
Position: (83.656111,-33.373889)

[Back]